Miscellaneous Local Product
Issued by NWS North Platte, NE

Home | Current Version | Previous Version | Graphics & Text | Print | Product List | Glossary On
Versions: 1 2 3 4 5 6 7 8 9 10 11 12 13 14 15 16 17 18 19 20 21 22 23 24 25 26 27 28 29 30 31 32 33 34 35 36 37 38 39 40 41 42 43 44 45 46 47 48 49 50
000
AXUS43 KLBF 280010
MISLBF


WESTERN AND NORTH CENTRAL NEBRASKA HOURLY WEATHER ROUNDUP
NATIONAL WEATHER SERVICE NORTH PLATTE NE
700 PM CDT THU AUG 27 2015

NOTE: "FAIR" INDICATES FEW OR NO CLOUDS BELOW 12,000 FEET WITH NO
SIGNIFICANT WEATHER AND/OR OBSTRUCTIONS TO VISIBILITY.

NOTE: STATIONS NOT REPORTING VARIABLES SUCH AS SKY/WEATHER OR
PRESSURE ARE PROVIDED BY THE NEBRASKA DEPARTMENT OF
ROADS...RAWS...AND APRS NETWORKS...AND ARE NOT UNDER
NATIONAL WEATHER SERVICE QUALITY CONTROL.

...OBSERVATIONS IN AND NEAR THE EASTERN PANHANDLE OF NEBRASKA...

CITY           SKY/WX    TMP DP  RH WIND       PRES   REMARKS
PINE RIDGE     PTSUNNY   73  58  59 NE6       30.01F
CHADRON        MOSUNNY   78  55  44 NE7       30.00F
ALLIANCE       PTSUNNY   74  56  53 NE9       30.03F
SIDNEY         MOSUNNY   80  56  43 N23G30    30.05R
BIG SPRINGS      N/A     82  64  53 N6          N/A
$$

...OBSERVATIONS IN NORTH CENTRAL NEBRASKA...

CITY           SKY/WX    TMP DP  RH WIND       PRES   REMARKS
THEDFORD       MOSUNNY   78  68  70 N15G21    29.91S
AINSWORTH      CLOUDY    77  68  74 N6        29.90F
O`NEILL        CLOUDY    78  70  75 E9        29.88S
ORD            PTSUNNY   80  70  71 E8        29.82F
BROKEN BOW     TSTM      79  71  76 NE6       29.82F
SPRINGVIEW       N/A     78  69  73 E3          N/A
SARGENT          N/A     80  71  75 MISG        N/A
CHAMBERS         N/A     81  71  70 E6          N/A
EWING            N/A     78  70  77 CALM        N/A
$$

...OBSERVATIONS IN SOUTHWEST NEBRASKA AND FAR NORTHEAST COLORADO...

CITY           SKY/WX    TMP DP  RH WIND       PRES   REMARKS
WRAY           FAIR      74  63  69 N15G21    29.96R
HOLYOKE        FAIR      86  59  39 N20       29.97R
IMPERIAL       MOSUNNY   82  60  47 N7        29.89R
OGALLALA       PTSUNNY   84  63  48 N16G23    29.93R
NORTH PLATTE   SUNNY     84  64  50 N10       29.84S
MCCOOK         MOSUNNY   92  57  30 W10       29.81S HX  90
LEXINGTON      MOSUNNY   90  71  52 W5        29.78S HX  96
PAXTON           N/A     83  67  57 N12         N/A
BRADY            N/A     87  68  52 CALM        N/A  HX  90
CALLAWAY         N/A     77  70  80 NE6         N/A
$$

...OBSERVATIONS IN CENTRAL LINCOLN COUNTY AREA...

CITY           SKY/WX    TMP DP  RH WIND       PRES   REMARKS
N.P. AIRPORT   SUNNY     84  64  50 N10       29.84S
N.P. DOWNTOWN    N/A     84  65  53 N8          N/A
N.P. SOUTHEAST   N/A     85  65  50 N5G12       N/A
$$

...SOME OBSERVATIONS FROM AROUND THE REGION...

CITY           SKY/WX    TMP DP  RH WIND       PRES   REMARKS
DENVER         CLOUDY    77  51  40 N18       30.14S
LARAMIE        PTSUNNY   70  48  45 NW13      30.27S
CHEYENNE       PTSUNNY   73  48  41 N14       30.18S
SCOTTSBLUFF    MOSUNNY   82  54  37 N10       30.04R
RAPID CITY     MOSUNNY   75  62  64 E9        30.00F
PIERRE         LGT RAIN  70  66  87 NE10      29.91F
WINNER         CLOUDY    75  69  81 CALM      29.90S
SIOUX FALLS    TSTM      74  61  63 SE25G37   29.93F
OMAHA          CLOUDY    80  68  66 S14       29.90F
GRAND ISLAND   PTSUNNY   81  67  62 S21G30    29.83F
KANSAS CITY    PTSUNNY   73  64  73 SE12      29.97S
WICHITA        PTSUNNY   85  64  49 S17G28    29.91F
HAYS           MOSUNNY   84  63  48 S35G46    29.82S
LIBERAL        PTSUNNY   91  57  31 S20       29.90S HX  90
GOODLAND       PTSUNNY   89  48  24 NW15G22   29.92S
$$



USA.gov is the U.S. government's official web portal to all federal, state and local government web resources and services.